Regional Weather Roundup
Issued by NWS

Home | Current Version | Previous Version | Text Only | Print | Product List | Glossary On
Versions: 1 2 3 4 5 6 7 8 9 10 11 12 13 14 15 16 17 18 19 20 21 22 23 24 25 26 27 28 29 30 31 32 33 34 35 36 37 38 39 40 41 42 43 44 45 46 47 48 49 50
000
ASUS43 KMKX 091811
RWRWI

WISCONSIN REGIONAL WEATHER ROUNDUP
NATIONAL WEATHER SERVICE MILWAUKEE/SULLIVAN WI
100 PM CDT WED JUL 09 2014

NOTE: "FAIR" INDICATES FEW OR NO CLOUDS BELOW 12,000 FEET WITH NO
SIGNIFICANT WEATHER AND/OR OBSTRUCTIONS TO VISIBILITY.

WIZ001-002-006>008-014>016-023>028-091900-
NORTHWEST WISCONSIN

CITY           SKY/WX    TMP DP  RH WIND       PRES   REMARKS
SUPERIOR ARPT  PTSUNNY   71  53  52 S3        29.99S
6HR MIN TEMP:  56; 6HR MAX TEMP:  71;

ASHLAND        PTSUNNY   67  50  54 VRB6      30.00S
6HR MIN TEMP:  53; 6HR MAX TEMP:  68;

HAYWARD        PTSUNNY   67  49  52 N7        30.01S
6HR MIN TEMP:  53; 6HR MAX TEMP:  67;

SIREN          PTSUNNY   69  52  53 W7        30.00F
6HR MIN TEMP:  55; 6HR MAX TEMP:  71;

RICE LAKE      CLOUDY    68  52  55 W7        30.02F
6HR MIN TEMP:  55; 6HR MAX TEMP:  69;

LADYSMITH      MOSUNNY   68  49  50 N13G18    30.02S
6HR MIN TEMP:  55; 6HR MAX TEMP:  68;

EAU CLAIRE     PTSUNNY   71  51  49 NW9       30.00S
6HR MIN TEMP:  59; 6HR MAX TEMP:  72;

MENOMONIE      MOCLDY    72  51  48 W6        30.01F
6HR MIN TEMP:  60; 6HR MAX TEMP:  73;

NEW RICHMOND   PTSUNNY   71  53  52 W6        30.02S
6HR MIN TEMP:  57; 6HR MAX TEMP:  71;

OSCEOLA        PTSUNNY   73  56  56 W6        30.03F
6HR MIN TEMP:  58; 6HR MAX TEMP:  73;

$$

WIZ003>005-009-010-017-018-091900-
NORTH CENTRAL WISCONSIN

CITY           SKY/WX    TMP DP  RH WIND       PRES   REMARKS
WOODRUFF       MOSUNNY   65  48  53 N15G22    29.99R
6HR MIN TEMP:  57; 6HR MAX TEMP:  65;

RHINELANDER    PTSUNNY   63  46  54 NW9G18    29.98R
6HR MIN TEMP:  53; 6HR MAX TEMP:  64;

EAGLE RIVER    PTSUNNY   61  45  54 N14G20    29.97R
6HR MIN TEMP:  54; 6HR MAX TEMP:  62;

LAND O LAKES   PTSUNNY   60  48  62 N8        29.99R
6HR MIN TEMP:  54; 6HR MAX TEMP:  61;

PHILLIPS       CLOUDY    63  48  58 N10       29.99S
6HR MIN TEMP:  51; 6HR MAX TEMP:  64;

TOMAHAWK       PTSUNNY   64  47  54 NW16      30.00R
6HR MIN TEMP:  52; 6HR MAX TEMP:  65;

MEDFORD        PTSUNNY   66  51  58 NW12G17   30.00S
6HR MIN TEMP:  54; 6HR MAX TEMP:  66;

MERRILL        PTSUNNY   68  50  52 NW12G18   29.98S
6HR MIN TEMP:  55; 6HR MAX TEMP:  68;

$$

WIZ029-030-035-036-043>047-091900-
CENTRAL WISCONSIN

CITY           SKY/WX    TMP DP  RH WIND       PRES   REMARKS
WAUSAU         PTSUNNY   69  48  47 NW10      29.97R
6HR MIN TEMP:  57; 6HR MAX TEMP:  69;

MOSINEE        PTSUNNY   68  50  52 NW13G20   29.99S
MARSHFIELD     CLOUDY    67  51  56 NW14      29.99S
6HR MIN TEMP:  58; 6HR MAX TEMP:  69;

STEVENS POINT  CLOUDY    67  46  47 NW10      29.99R
6HR MIN TEMP:  57; 6HR MAX TEMP:  67;

WAUPACA        MOSUNNY   73  48  41 NW9G21    29.97R
6HR MIN TEMP:  60; 6HR MAX TEMP:  73;

WAUTOMA        SUNNY     72  49  44 N16       29.98R
6HR MIN TEMP:  61; 6HR MAX TEMP:  72;

WISC RAPIDS    PTSUNNY   72  47  40 NW15      30.00R
6HR MIN TEMP:  61; 6HR MAX TEMP:  72;

CAMP DOUGLAS   MOSUNNY   72  52  49 NW14G20   30.00S
$$

WIZ011>013-019>022-031-037>040-048>050-091900-
NORTHEAST WISCONSIN

CITY           SKY/WX    TMP DP  RH WIND       PRES   REMARKS
ANTIGO         PTSUNNY   64  50  59 NW14G20   29.97S
6HR MIN TEMP:  54; 6HR MAX TEMP:  65;

STURGEON BAY   PTSUNNY   66  52  59 NW7       29.94S
6HR MIN TEMP:  54; 6HR MAX TEMP:  66;

GREEN BAY      SUNNY     70  55  59 W9        29.93S
6HR MIN TEMP:  58; 6HR MAX TEMP:  71;

MANITOWOC      CLOUDY    63  55  75 SE13      29.94R
6HR MIN TEMP:  58; 6HR MAX TEMP:  69;

APPLETON       PTSUNNY   68  50  52 NW12      29.96R
CLINTONVILLE   MOSUNNY   70  46  43 NW16      29.94S
OSHKOSH        MOSUNNY   70  54  56 NW14G20   29.95R
6HR MIN TEMP:  60; 6HR MAX TEMP:  71; 6HR PCP: TRACE;

$$

WIZ032>034-041-042-053>061-091900-
SOUTHWEST WISCONSIN

CITY           SKY/WX    TMP DP  RH WIND       PRES   REMARKS
LA CROSSE      SUNNY     76  51  41 NW8       30.01S
6HR MIN TEMP:  63; 6HR MAX TEMP:  76;

SPARTA         SUNNY     71  43  36 W10G17    30.02S
6HR MIN TEMP:  58; 6HR MAX TEMP:  72;

VIROQUA        FAIR      71  51  49 NW12      30.02F
6HR MIN TEMP:  58; 6HR MAX TEMP:  71;

BOSCOBEL       MOSUNNY   76  51  41 VRB7      30.01S
6HR MIN TEMP:  59; 6HR MAX TEMP:  76;

PRAIRIE DU CHI SUNNY     73  50  45 NW6       30.01S
6HR MIN TEMP:  60; 6HR MAX TEMP:  73;

PLATTEVILLE    FAIR      73  53  50 NW7       30.02S
6HR MIN TEMP:  58; 6HR MAX TEMP:  73;

$$

WIZ056-057-062-063-064-067-068-091900-
SOUTH CENTRAL WISCONSIN

CITY           SKY/WX    TMP DP  RH WIND       PRES   REMARKS
BARABOO/DELLS  MOSUNNY   73  46  38 NW10      29.99S
6HR MIN TEMP:  59; 6HR MAX TEMP:  73;

LONE ROCK      SUNNY     77  53  43 NW12G20   30.00S
6HR MIN TEMP:  63; 6HR MAX TEMP:  77;

WATERTOWN      PTSUNNY   71  52  51 W8        29.97R
6HR MIN TEMP:  60; 6HR MAX TEMP:  72;

MADISON        MOSUNNY   74  49  41 NW14G20   29.98R
6HR MIN TEMP:  61; 6HR MAX TEMP:  74;

MIDDLETON      FAIR      73  47  39 NW15G23   29.99S
6HR MIN TEMP:  61; 6HR MAX TEMP:  74;

MONROE         MOSUNNY   72  52  49 N10G18    29.99S
JANESVILLE     PTSUNNY   75  54  46 NW13G18   29.97S
$$

WIZ051-052-058>065-066-070>072-091900-
SOUTHEAST WISCONSIN

CITY           SKY/WX    TMP DP  RH WIND       PRES   REMARKS
MILWAUKEE      MOSUNNY   74  52  46 NW13G20   29.95R
6HR MIN TEMP:  59; 6HR MAX TEMP:  74;

WAUKESHA       PTSUNNY   68  54  60 W12G23    29.97R
MILWAUKEE/TIMM MOSUNNY   73  52  46 NW12G20   29.95S
RACINE         PTSUNNY   73  55  53 W10G17    29.96S
6HR MIN TEMP:  57; 6HR MAX TEMP:  75;

BURLINGTON     SUNNY     71  55  57 NW13      29.96S
6HR MIN TEMP:  59; 6HR MAX TEMP:  71;

KENOSHA        PTSUNNY   73  55  53 NW15      29.95S
6HR MIN TEMP:  60; 6HR MAX TEMP:  75;

FOND DU LAC    MOSUNNY   72  50  45 NW15      29.96R
6HR MIN TEMP:  62; 6HR MAX TEMP:  72;

SHEBOYGAN      CLOUDY    67  57  70 SE3       29.94S
6HR MIN TEMP:  59; 6HR MAX TEMP:  71;

WEST BEND      PTSUNNY   72  46  40 NW10G20   29.95S
JUNEAU         PTSUNNY   70  36  28 W10G16    29.97S
6HR MIN TEMP:  59; 6HR MAX TEMP:  70;

$$

LSZ147-162-091900-
LAKE SUPERIOR

STATION/POSITION TIME  TEMP    WIND        PRES    WAVE
                       AIR SEA DIR/SP/G            HT/PER
                 (UTC) (F)     (DEG/KT/KT) (MB)    (FT/S)
W MID LAKE BUOY  1750   44 38  220/  8/  8 1015.5S   0
DEVILS ISLAND    1800   62     210/  3/  5 1015.9
SAXON HARBOR     1700             CALM     1016.3
$$

LMZ867-665-643>646-091900-
LAKE MICHIGAN

STATION/POSITION TIME  TEMP    WIND        PRES    WAVE
                       AIR SEA DIR/SP/G            HT/PER
                 (UTC) (F)     (DEG/KT/KT) (MB)    (FT/S)
N MID LAKE BUOY  1750   56 56  220/  4/  4 1013.2R   1
NORTHPORT PIER   1700   60     310/ 11/ 15 1013.2S
SISTER BAY       1725   64     350/  8/ 10   N/A
KEWAUNEE LAKESHO 1700   54     170/  7/  9 1014.4R
SHEBOYGAN LAKESH 1800   59     170/ 12/ 12 1014.3S
PORT WASHINGTON  1740   62      50/  2/  4 1014.9R
ATWATER BUOY     1530   61     110/  6     1014.3
MILWAUKEE LAKESH 1700   61     120/  9/ 11   N/A
S MID LAKE BUOY  1750   56 55  110/  4/  6 1014.7R   1
KENOSHA   LAKESH 1800   63     140/ 10/ 10   N/A
$$

TC  - TEMPERATURE IN CELSIUS
VSB - VISIBILITY IN STATUTE MILES
WCI - WIND CHILL INDEX
HX  - HEAT INDEX



USA.gov is the U.S. government's official web portal to all federal, state and local government web resources and services.